Location: *
(38.9800°N, 16.0500°E)
Time: 22:24:50
(UTC+00:00)

Cosmos 2180 Rocket - Pass Details

Date: 07 April 2020
Orbit: 955 x 1004 km, 82.9° (Epoch: 25 May)

Event Time Altitude Azimuth Distance (km) Brightness Sun altitude
Rises 02:35:33 0° 350° (N) 3,663 7.8 -21.9°
Reaches altitude 10° 02:38:03 10° 349° (NNW) 2,719 7.0 -21.5°
Maximum altitude 02:44:15 72° 266° (W) 1,028 4.4 -20.4°
Drops below altitude 10° 02:50:29 10° 183° (S) 2,736 6.6 -19.3°
Enters shadow 02:52:51 - 182° (S) 3,623 7.2 -18.9°
